EET,Max TemperatureF,Mean TemperatureF,Min TemperatureF,Max Dew PointF,MeanDew PointF,Min DewpointF,Max Humidity, Mean Humidity, Min Humidity, Max Sea Level PressureIn, Mean Sea Level PressureIn, Min Sea Level PressureIn, Max VisibilityMiles, Mean VisibilityMiles, Min VisibilityMiles, Max Wind SpeedMPH, Mean Wind SpeedMPH, Max Gust SpeedMPH,PrecipitationIn, CloudCover, Events, WindDirDegrees
2012-10-1,87,74,60,66,60,50,94,64,32,30.09,30.02,29.98,6,6,6,21,5,36,0.00,3,Thunderstorm,289
2012-10-2,84,74,64,64,57,48,88,56,29,30.04,30.00,29.95,6,6,6,12,6,,0.00,5,Rain,121
2012-10-3,87,72,57,63,58,50,94,66,27,29.98,29.96,29.92,6,6,6,16,5,,0.00,1,,185
2012-10-4,82,70,59,66,60,55,88,71,42,29.95,29.89,29.83,6,6,4,18,5,,0.00,4,Thunderstorm,194
2012-10-5,87,74,60,64,59,52,94,64,31,29.95,29.88,29.83,6,6,6,18,5,,0.00,2,,196
2012-10-6,86,72,57,63,55,50,82,59,29,29.98,29.96,29.92,6,6,6,17,5,,0.00,1,,183
2012-10-7,84,72,59,66,60,55,88,69,42,29.98,29.94,29.89,6,6,6,21,6,,0.00,1,,216
2012-10-8,82,68,55,63,59,52,94,71,35,29.92,29.87,29.83,6,6,4,13,5,,0.00,5,,189
2012-10-9,82,70,57,63,57,50,94,67,34,29.86,29.84,29.80,6,6,6,17,5,,0.00,4,,165
2012-10-10,78,68,57,61,56,52,94,73,42,29.83,29.81,29.80,6,6,2,15,4,,0.00,6,Rain-Thunderstorm,124
2012-10-11,78,68,59,61,58,54,94,75,42,29.92,29.83,29.80,6,6,3,18,5,,0.00,3,,215
2012-10-12,80,66,53,57,54,45,94,69,30,30.04,30.00,29.95,6,6,6,17,5,,0.00,4,,177
2012-10-13,82,68,53,57,52,37,94,66,21,30.06,30.03,29.98,6,6,6,15,5,,0.00,1,,168
2012-10-14,82,68,55,61,55,48,94,68,30,30.04,30.00,29.95,6,6,6,15,5,,0.00,1,,168
2012-10-15,87,72,57,64,58,54,94,68,31,30.09,30.03,29.98,6,6,6,15,5,,0.00,2,,159
2012-10-16,91,75,59,61,54,43,88,61,20,30.12,30.08,30.04,6,6,4,14,4,,0.00,1,,129
2012-10-17,87,71,55,64,57,52,94,66,31,30.09,30.05,30.01,6,6,6,12,3,,0.00,1,,205
2012-10-18,91,74,57,63,57,50,88,59,24,30.04,29.99,29.92,6,6,4,14,4,,0.00,1,,230
2012-10-19,87,72,57,63,57,50,88,62,27,30.01,29.97,29.92,6,6,6,14,4,,0.00,1,,210
2012-10-20,80,68,55,59,54,46,88,63,32,29.95,29.91,29.86,6,6,6,17,5,,0.00,1,,183
2012-10-21,77,65,53,52,48,43,77,58,33,29.86,29.84,29.80,6,6,6,17,6,,0.00,3,,180
2012-10-22,75,66,57,57,54,50,100,77,41,29.92,29.89,29.86,6,6,3,14,4,,0.00,5,Rain-Thunderstorm,125
2012-10-23,75,64,53,57,54,50,94,75,41,29.95,29.92,29.89,6,6,6,10,4,,0.00,6,Thunderstorm,155
2012-10-24,73,63,53,59,55,50,94,80,44,29.95,29.92,29.89,6,6,6,12,4,,0.00,6,Rain-Thunderstorm,117
2012-10-25,75,66,57,57,56,54,94,75,47,29.92,29.85,29.80,6,6,6,17,5,,0.00,6,Thunderstorm,167
2012-10-26,75,63,51,57,55,50,94,76,47,29.92,29.87,29.83,6,6,4,14,5,,0.00,2,,183
2012-10-27,77,64,50,57,52,45,100,71,32,29.98,29.94,29.92,6,6,2,14,4,,0.00,5,Fog,143
2012-10-28,78,68,57,59,57,54,88,64,44,30.01,29.99,29.95,6,6,6,18,8,,0.00,5,,127
2012-10-29,77,73,69,59,58,54,64,59,47,30.01,29.91,29.83,6,6,6,21,13,30,0.00,6,,135
2012-10-30,77,68,60,64,56,46,94,66,36,29.95,29.87,29.74,6,6,2,26,12,31,0.00,5,Rain-Thunderstorm,196
2012-10-31,75,66,57,59,57,52,94,78,47,30.01,29.96,29.92,6,6,6,9,3,,0.00,5,,124